Location: Balagbag Mahabang Kahoy
(14.1562°N, 120.9200°E)
Time: 14:40:12
(UTC+00:00)

Daily predictions for brighter satellites

Satellite Brightness Start Highest point End
(mag) Time Altitude Azimuth Time Altitude Azimuth Time Altitude Azimuth
Cosmos 1763 Rocket 4.5 12:01:52 10° SSW 12:05:45 43° WSW 12:05:45 43° WSW
Cosmos 2082 Rocket 4.5 12:39:48 10° WSW 12:42:47 19° W 12:42:47 19° W
ATLAS 2AS CENTAUR RB 4.1 12:46:51 10° W 12:58:06 39° WSW 12:58:06 39° WSW
Centaur AC-112 4.3 19:44:19 64° ENE 19:44:19 64° ENE 20:03:02 10° ESE
Ariane H10+ 3.7 19:52:07 30° SSE 19:52:07 30° SSE 19:54:46 10° ESE
ATLAS 2AS CENTAUR RB 4.2 19:51:09 41° SSW 19:53:30 46° S 20:43:23 10° ESE
Cosmos 2278 Rocket 3.5 19:49:15 10° S 19:54:22 36° ESE 19:59:29 10° NE
ATLAS CENTAUR Rocket 4.0 20:03:11 34° N 20:04:24 36° NNE 20:24:19 10° E
USA 215 3.3 19:58:11 10° SE 20:04:01 72° SSE 20:04:01 72° SSE
Cosmos 1603 4.3 20:11:57 47° SSE 20:11:57 47° SSE 20:15:54 10° SSE
Cosmos 1943 Rocket 3.6 20:13:27 26° NNE 20:13:27 26° NNE 20:15:47 10° NNE
RESURS DK-1 3.8 20:27:05 31° SE 20:27:05 31° SE 20:29:17 10° SSE
Cosmos 1110 Rocket 4.0 20:28:53 69° S 20:28:53 69° S 20:33:25 10° SSE
BREEZE-M DEB 3.8 20:32:33 46° SW 20:34:12 86° NW 20:40:01 10° NE
SL-16 R/B 2.9 20:33:31 10° S 20:38:43 43° WSW 20:38:43 43° WSW
Sich 1 3.1 20:35:25 10° S 20:39:07 66° SSE 20:39:07 66° SSE
Cosmos 1269 Rocket 4.4 20:34:33 10° S 20:39:44 63° ESE 20:44:56 10° NNE
Cosmos 1452 Rocket 3.4 20:40:01 48° N 20:41:33 84° ENE 20:46:47 10° SSE
Nadezhda 1 Rocket 4.0 20:42:38 52° WNW 20:43:13 53° W 20:49:22 10° SSW
BlueWalker 3 2.3 20:46:55 53° ENE 20:46:55 53° ENE 20:50:16 10° SE
Cosmos 1805 Rocket 4.2 20:43:07 10° S 20:47:24 54° E 20:51:42 10° NNE
Cosmos 1140 Rocket 3.5 20:43:09 10° S 20:48:13 74° ESE 20:53:17 10° NNE
USA 234 3.7 20:44:25 10° NE 20:50:52 61° SE 20:57:17 10° SSW
Okean 3 Rocket 4.5 20:46:39 10° SSW 20:49:15 34° SSW 20:49:15 34° SSW
FengYun 1-2 T 4.4 20:51:41 45° W 20:51:41 45° W 20:56:17 10° SSW
Yuri Rocket 2.8 20:51:30 67° NNW 20:51:56 75° NNE 20:56:04 10° ESE
CZ-3A R/B 4.5 20:45:35 29° WNW 20:53:54 46° NNW 20:58:54 10° ENE
EPKM 2.4 20:54:31 48° ESE 20:54:31 48° ESE 20:56:03 10° ESE
Cosmos 1500 Rocket 3.7 20:51:09 10° S 20:55:25 69° E 20:59:43 10° N
Cosmos 1023 Rocket 4.2 20:51:11 10° SSW 20:56:13 80° WNW 21:01:16 10° N
UNK 3.6 20:53:19 10° S 20:57:50 62° WSW 20:59:07 43° NW
Cosmos 1408 Rocket 3.4 20:55:54 10° S 21:00:16 84° W 21:04:36 10° N
Cosmos 1461 3.7 20:59:38 10° S 21:03:14 45° ESE 21:06:54 10° NE
Atlas Centaur 2 3.6 21:02:41 18° NNW 21:03:23 18° N 21:07:28 10° NE
Lacrosse 4 Rocket 1.1 20:59:40 10° SSW 21:03:42 77° WNW 21:07:39 10° NNE
Ariane H10+ 2.6 21:04:01 19° SSW 21:04:45 22° S 21:07:35 10° ESE
BREEZE-M DEB (TANK) 4.0 21:03:46 32° NW 21:06:27 77° SW 21:23:47 10° SE
GPS 2-12 Rocket1 3.6 21:08:24 33° NNW 21:09:19 37° N 21:13:22 10° ENE
CENTAUR R/B 1.8 21:05:49 10° SSW 21:10:22 83° ESE 21:15:39 10° NNE
Meteor 1-23 Rocket 4.1 21:08:15 10° N 21:13:48 75° W 21:19:25 10° S
Hubble Space Telescope 1.3 21:16:23 30° WSW 21:17:35 39° SSW 21:21:08 10° SE
NOAA 12 4.4 21:14:08 10° N 21:19:00 41° WNW 21:23:54 10° SW
Cosmos 2184 Rocket 4.0 21:18:54 10° SSW 21:25:02 60° W 21:31:07 10° N
CCE 1 Rocket 3.9 21:23:09 23° WNW 21:25:50 81° NNE 21:32:30 10° ESE
Meteor 1-21 4.2 21:20:59 10° NNW 21:26:35 61° W 21:32:14 10° S
Uosat 12 SS-18 rocket 4.0 21:22:49 10° SSW 21:27:05 82° WNW 21:31:58 10° NNE
ATLAS 2A CENTAUR R/B 2.4 21:28:06 18° NNE 21:28:06 18° NNE 21:28:49 10° NE
Cosmos 407 Rocket 3.4 21:24:51 10° SSW 21:29:56 90° W 21:35:03 10° NNE
CBERS-1 4.4 21:33:12 10° NNE 21:38:15 68° ESE 21:43:18 10° S
Cosmos 2278 Rocket 3.5 21:34:48 10° WSW 21:38:18 17° WNW 21:41:48 10° NNW
Cosmos 2181 Rocket 4.0 21:32:30 10° N 21:38:52 69° W 21:45:16 10° S
Okean 3 4.0 21:35:07 10° N 21:39:01 56° E 21:42:54 10° SSE
Palapa B4 Rocket 3.1 21:42:07 14° W 21:45:13 55° N 21:49:47 10° ENE
Cosmos 1703 4.5 21:45:17 14° WNW 21:46:21 16° W 21:48:25 10° SW
COSMO-SKYMED 1 2.6 21:43:35 10° SSE 21:47:41 75° ENE 21:51:46 10° N
Meteor 2-10 Rocket 4.4 21:45:08 10° SW 21:49:07 24° W 21:53:11 10° NNW
Okean 2 3.4 21:47:02 10° NNW 21:50:43 48° W 21:54:27 10° SSW
Cosmos 1656 Rocket 3.7 21:45:34 10° SSW 21:51:10 68° WNW 21:56:48 10° N
Meteor 2-13 Rocket 4.5 21:47:09 10° NNW 21:53:05 58° W 21:59:00 10° S
Cosmos 1758 4.2 21:51:26 10° SW 21:54:31 25° W 21:57:36 10° NNW
Ariane H10+ 3.5 21:53:17 10° SW 21:55:56 15° SSW 21:57:57 10° SSE
Cosmos 1833 Rocket 3.0 21:53:27 10° NNW 21:58:48 47° WSW 22:04:08 10° S
Cosmos 1633 Rocket 3.1 21:55:30 10° S 21:59:51 87° E 22:04:11 10° N
Cosmos 1484 Rocket 3.2 21:59:20 10° NNW 22:02:22 30° WNW 22:05:26 10° SW
Thor Agena Rocket 3.7 22:01:35 10° NNE 22:06:45 83° ESE 22:11:58 10° S
